Flag for Moldova Weather past 2 weeks in Cahul, Moldova

Now
47 °F

Overcast.


Feels Like: 46 °F
Forecast: 40 / 52 °F
Wind: 5 mph from Southeast

Location: Galati

Current Time: Jan 30, 2015 at 7:32:19 PM

Latest Report: Jan 30, 2015 at 7:00 PM


Visibility: 6 mi

Pressure: 29.32 "Hg

Humidity: 88%

Dew point: 44 °F

Location of CahulLocation

Historic Weather in Cahul — Graph

°F

Cahul temperature yesterday

Maximum temperature yesterday: 40 °F (at 2:00 PM)
Minimum temperature yesterday: 33 °F (at 5:00 AM)
Average temperature yesterday: 37 °F

Past Weeks' High & Low Weather Summary

 TemperatureHumidityPressure
High50 °F (Jan 30, 4:00 PM)100% (Jan 15, 6:00 PM)30.33 "Hg (Jan 15, 6:00 PM)
Low26 °F (Jan 20, 7:00 AM)76% (Jan 27, 3:00 PM)29.32 "Hg (Jan 30, 5:00 PM)
Average34 °F98%30.05 "Hg
* Reported Jan 15 6:00 PM — Jan 30 6:00 PM, Cahul, Weather by CustomWeather, © 2014

Note: Actual official high and low records may vary slightly from our data, if they occured in-between our weather recording intervals... More about our weather records

Advertising

Cahul weather history for previous 24 hours

 ConditionsComfort  
Time TempWeatherWind HumidityBarometerVisibility
6:00 PM
Jan 30
48 °FOvercast.5 mph88%29.32 "Hg6 mi
5:00 PM49 °FOvercast.3 mph86%29.32 "Hg6 mi
4:00 PM50 °FOvercast.5 mph81%29.35 "Hg6 mi
3:00 PM50 °FOvercast.6 mph80%29.35 "Hg6 mi
2:00 PM49 °FOvercast.5 mph84%29.38 "Hg6 mi
1:00 PM46 °FOvercast.3 mph87%29.41 "Hg6 mi
12:00 PM45 °FOvercast.5 mph87%29.44 "Hg6 mi
11:00 AM43 °FOvercast.5 mph91%29.47 "Hg6 mi
10:00 AM41 °FOvercast.3 mph91%29.47 "Hg6 mi
9:00 AM39 °FFog.5 mph97%29.50 "Hg2 mi
8:00 AM39 °FFog.3 mph97%29.50 "Hg2 mi
7:00 AM39 °FFog.3 mph95%29.54 "Hg2 mi
6:00 AM39 °FFog.3 mph94%29.55 "Hg2 mi
4:00 AM39 °FFog.5 mph94%29.59 "Hg2 mi
3:00 AM39 °FFog.5 mph92%29.61 "Hg2 mi
2:00 AM39 °FFog.5 mph91%29.63 "Hg2 mi
1:00 AM39 °FFog.5 mph90%29.65 "Hg2 mi
12:00 AM39 °FFog.3 mph93%29.66 "Hg2 mi
10:00 PM
Jan 29
39 °FFog.2 mph95%29.70 "Hg2 mi
9:00 PM40 °FFog.2 mph92%29.71 "Hg2 mi
8:00 PM40 °FFog.2 mph91%29.72 "Hg2 mi
7:00 PM40 °FFog.2 mph90%29.72 "Hg2 mi
Weather by CustomWeather, © 2014

See weather overviewHow to use our weather pages